Location: Austin
(30.3000°N, 97.7500°W)
Time: 00:18:57
(UTC-05:00)

Cosmos 2278 Rocket - Visible Passes

Search period start: 06 June 2026 00:00
Search period end: 16 June 2026 00:00
Orbit: 840 x 845 km, 71.0° (Epoch: 5 June)

Date Brightness Start Highest point End Pass type
(mag) Time Alt. Az. Time Alt. Az. Time Alt. Az.
6 Jun 3.7 02:11:34 32° NNW 02:11:34 32° NNW 02:14:56 10° N visible
7 Jun 3.7 01:56:44 33° NNW 01:56:44 33° NNW 02:00:04 10° N visible
8 Jun 3.7 01:41:53 33° NNW 01:41:53 33° NNW 01:45:11 10° N visible
9 Jun 3.6 01:26:59 34° N 01:26:59 34° N 01:30:18 10° N visible
10 Jun 3.6 01:12:02 35° N 01:12:02 35° N 01:15:24 10° N visible
11 Jun 3.5 00:57:03 37° N 00:57:03 37° N 01:00:31 10° NNE visible
12 Jun 3.4 00:41:59 39° N 00:41:59 39° N 00:45:37 10° NNE visible
13 Jun 3.2 00:26:52 43° N 00:26:52 43° N 00:30:43 10° NNE visible
14 Jun 2.9 00:11:41 49° N 00:11:41 49° N 00:15:49 10° NNE visible
14 Jun 2.7 23:56:24 57° N 23:56:24 57° N 00:00:55 10° NNE visible
15 Jun 2.4 23:41:00 69° N 23:41:00 69° N 23:46:00 10° NNE visible
